Year,Month,Day,Hour,Minute,Value (Times are PST for windspeed in km/hr)
2007,01,02,00,00,2.20
2007,01,02,00,01,4.20
2007,01,02,00,02,4.80
2007,01,02,00,03,5.20
2007,01,02,00,04,3.00
2007,01,02,00,05,4.70
2007,01,02,00,06,3.80
2007,01,02,00,07,4.50
2007,01,02,00,08,2.00
2007,01,02,00,09,1.70
2007,01,02,00,10,3.80
2007,01,02,00,11,4.40
2007,01,02,00,12,5.00
2007,01,02,00,13,4.70
2007,01,02,00,14,4.80
2007,01,02,00,15,4.80
2007,01,02,00,16,4.80
2007,01,02,00,17,4.80
2007,01,02,00,18,4.80
2007,01,02,00,19,4.80
2007,01,02,00,20,3.80
2007,01,02,00,21,3.80
2007,01,02,00,22,2.90
2007,01,02,00,23,5.00
2007,01,02,00,24,4.40
2007,01,02,00,25,4.50
2007,01,02,00,26,3.10
2007,01,02,00,27,1.60
2007,01,02,00,28,1.60
2007,01,02,00,29,1.60
2007,01,02,00,30,1.50
2007,01,02,00,31,2.00
2007,01,02,00,32,2.90
2007,01,02,00,33,3.50
2007,01,02,00,34,4.10
2007,01,02,00,35,3.40
2007,01,02,00,36,2.40
2007,01,02,00,37,1.40
2007,01,02,00,38,1.80
2007,01,02,00,39,4.10
2007,01,02,00,40,4.70
2007,01,02,00,41,2.80
2007,01,02,00,42,2.30
2007,01,02,00,43,3.40
2007,01,02,00,44,2.80
2007,01,02,00,45,3.50
2007,01,02,00,46,3.20
2007,01,02,00,47,3.20
2007,01,02,00,48,3.20
2007,01,02,00,49,3.20
2007,01,02,00,50,3.20
2007,01,02,00,51,3.20
2007,01,02,00,52,3.20
2007,01,02,00,53,5.10
2007,01,02,00,54,2.90
2007,01,02,00,55,4.20
2007,01,02,00,56,3.40
2007,01,02,00,57,3.40
2007,01,02,00,58,4.40
2007,01,02,00,59,4.40
2007,01,02,01,00,3.80
2007,01,02,01,01,6.80
2007,01,02,01,02,4.20
2007,01,02,01,03,4.70
2007,01,02,01,04,3.10
2007,01,02,01,05,3.30
2007,01,02,01,06,4.60
2007,01,02,01,07,5.30
2007,01,02,01,08,4.20
2007,01,02,01,09,4.60
2007,01,02,01,10,2.90
2007,01,02,01,11,4.40
2007,01,02,01,12,4.60
2007,01,02,01,13,3.80
2007,01,02,01,14,2.50
2007,01,02,01,15,2.30
2007,01,02,01,16,3.10
2007,01,02,01,17,4.40
2007,01,02,01,18,3.10
2007,01,02,01,19,2.60
2007,01,02,01,20,2.60
2007,01,02,01,21,4.80
2007,01,02,01,22,3.40
2007,01,02,01,23,3.30
2007,01,02,01,24,2.70
2007,01,02,01,25,2.40
2007,01,02,01,26,3.40
2007,01,02,01,27,1.90
2007,01,02,01,28,1.30
2007,01,02,01,29,2.70
2007,01,02,01,30,1.10
2007,01,02,01,31,1.50
2007,01,02,01,32,1.20
2007,01,02,01,33,2.50
2007,01,02,01,34,1.80
2007,01,02,01,35,2.30
2007,01,02,01,36,3.10
2007,01,02,01,37,4.40
2007,01,02,01,38,3.80
2007,01,02,01,39,1.40
2007,01,02,01,40,2.00
2007,01,02,01,41,1.30
2007,01,02,01,42,0.60
2007,01,02,01,43,0.90
2007,01,02,01,44,1.70
2007,01,02,01,45,0.10
2007,01,02,01,46,0.00
2007,01,02,01,47,0.00
2007,01,02,01,48,0.00
2007,01,02,01,49,0.00
2007,01,02,01,50,0.00
2007,01,02,01,51,0.00
2007,01,02,01,52,0.00
2007,01,02,01,53,2.30
2007,01,02,01,54,2.30
2007,01,02,01,55,3.10
2007,01,02,01,56,2.60
2007,01,02,01,57,2.60
2007,01,02,01,58,1.80
2007,01,02,01,59,1.50
2007,01,02,02,00,1.40
2007,01,02,02,01,1.50
2007,01,02,02,02,1.40
2007,01,02,02,03,1.10
2007,01,02,02,04,0.80
2007,01,02,02,05,0.40
2007,01,02,02,06,2.00
2007,01,02,02,07,0.40
2007,01,02,02,08,1.50
2007,01,02,02,09,3.60
2007,01,02,02,10,2.70
2007,01,02,02,11,2.80
2007,01,02,02,12,2.20
2007,01,02,02,13,2.10
2007,01,02,02,14,1.50
2007,01,02,02,15,2.90
2007,01,02,02,16,3.00
2007,01,02,02,17,2.20
2007,01,02,02,18,2.30
2007,01,02,02,19,2.10
2007,01,02,02,20,2.60
2007,01,02,02,21,3.10
2007,01,02,02,22,3.10
2007,01,02,02,23,3.60
2007,01,02,02,24,3.60
2007,01,02,02,25,2.40
2007,01,02,02,26,4.70
2007,01,02,02,27,4.90
2007,01,02,02,28,4.70
2007,01,02,02,29,3.20
2007,01,02,02,30,3.90
2007,01,02,02,31,2.50
2007,01,02,02,32,3.00
2007,01,02,02,33,2.40
2007,01,02,02,34,3.50
2007,01,02,02,35,3.10
2007,01,02,02,36,5.70
2007,01,02,02,37,6.10
2007,01,02,02,38,3.60
2007,01,02,02,39,2.40
2007,01,02,02,40,2.30
2007,01,02,02,41,4.50
2007,01,02,02,42,4.10
2007,01,02,02,43,3.40
2007,01,02,02,44,3.90
2007,01,02,02,45,4.80
2007,01,02,02,46,2.70
2007,01,02,02,47,3.10
2007,01,02,02,48,4.10
2007,01,02,02,49,5.40
2007,01,02,02,50,3.00
2007,01,02,02,51,3.70
2007,01,02,02,52,2.20
2007,01,02,02,53,4.60
2007,01,02,02,54,3.00
2007,01,02,02,55,1.60
2007,01,02,02,56,1.90
2007,01,02,02,57,3.60
2007,01,02,02,58,3.50
2007,01,02,02,59,3.10
2007,01,02,03,00,4.10
2007,01,02,03,01,3.30
2007,01,02,03,02,1.80
2007,01,02,03,03,2.30
2007,01,02,03,04,2.00
2007,01,02,03,05,3.00
2007,01,02,03,06,4.40
2007,01,02,03,07,1.90
2007,01,02,03,08,1.60
2007,01,02,03,09,3.70
2007,01,02,03,10,2.40
2007,01,02,03,11,3.00
2007,01,02,03,12,1.60
2007,01,02,03,13,4.50
2007,01,02,03,14,0.80
2007,01,02,03,15,2.40
2007,01,02,03,16,4.70
2007,01,02,03,17,3.90
2007,01,02,03,18,2.90
2007,01,02,03,19,4.00
2007,01,02,03,20,3.80
2007,01,02,03,21,2.60
2007,01,02,03,22,2.90
2007,01,02,03,23,6.60
2007,01,02,03,24,6.90
2007,01,02,03,25,4.30
2007,01,02,03,26,2.70
2007,01,02,03,27,4.30
2007,01,02,03,28,7.80
2007,01,02,03,29,5.80
2007,01,02,03,30,3.60
2007,01,02,03,31,3.60
2007,01,02,03,32,3.90
2007,01,02,03,33,5.00
2007,01,02,03,34,5.70
2007,01,02,03,35,3.10
2007,01,02,03,36,5.00
2007,01,02,03,37,3.40
2007,01,02,03,38,0.60
2007,01,02,03,39,2.70
2007,01,02,03,40,7.40
2007,01,02,03,41,2.90
2007,01,02,03,42,4.70
2007,01,02,03,43,4.10
2007,01,02,03,44,4.60
2007,01,02,03,45,6.60
2007,01,02,03,46,4.20
2007,01,02,03,47,4.90
2007,01,02,03,48,2.10
2007,01,02,03,49,6.00
2007,01,02,03,50,4.50
2007,01,02,03,51,2.70
2007,01,02,03,52,2.60
2007,01,02,03,53,2.80
2007,01,02,03,54,6.10
2007,01,02,03,55,7.10
2007,01,02,03,56,2.40
2007,01,02,03,57,3.60
2007,01,02,03,58,2.30
2007,01,02,03,59,2.20
2007,01,02,04,00,3.90
2007,01,02,04,01,4.10
2007,01,02,04,02,2.40
2007,01,02,04,03,2.00
2007,01,02,04,04,4.30
2007,01,02,04,05,3.30
2007,01,02,04,06,2.20
2007,01,02,04,07,0.80
2007,01,02,04,08,4.20
2007,01,02,04,09,6.00
2007,01,02,04,10,7.70
2007,01,02,04,11,1.60
2007,01,02,04,12,0.10
2007,01,02,04,13,2.40
2007,01,02,04,14,2.40
2007,01,02,04,15,4.10
2007,01,02,04,16,3.60
2007,01,02,04,17,3.20
2007,01,02,04,18,2.60
2007,01,02,04,19,2.20
2007,01,02,04,20,1.10
2007,01,02,04,21,2.80
2007,01,02,04,22,1.90
2007,01,02,04,23,2.70
2007,01,02,04,24,1.40
2007,01,02,04,25,2.30
2007,01,02,04,26,0.60
2007,01,02,04,27,0.80
2007,01,02,04,28,0.90
2007,01,02,04,29,1.40
2007,01,02,04,30,0.40
2007,01,02,04,31,0.20
2007,01,02,04,32,2.00
2007,01,02,04,33,2.90
2007,01,02,04,34,2.70
2007,01,02,04,35,3.70
2007,01,02,04,36,2.90
2007,01,02,04,37,3.10
2007,01,02,04,38,0.80
2007,01,02,04,39,0.00
2007,01,02,04,40,1.40
2007,01,02,04,41,1.90
2007,01,02,04,42,0.00
2007,01,02,04,43,0.10
2007,01,02,04,44,3.10
2007,01,02,04,45,3.20
2007,01,02,04,46,2.90
2007,01,02,04,47,5.70
2007,01,02,04,48,5.10
2007,01,02,04,49,5.20
2007,01,02,04,50,11.50
2007,01,02,04,51,12.90
2007,01,02,04,52,16.00
2007,01,02,04,53,12.30
2007,01,02,04,54,6.40
2007,01,02,04,55,2.40
2007,01,02,04,56,5.40
2007,01,02,04,57,3.20
2007,01,02,04,58,5.80
2007,01,02,04,59,3.40
2007,01,02,05,00,4.50
2007,01,02,05,01,2.30
2007,01,02,05,02,0.10
2007,01,02,05,03,0.10
2007,01,02,05,04,0.30
2007,01,02,05,05,4.40
2007,01,02,05,06,6.70
2007,01,02,05,07,4.10
2007,01,02,05,08,2.00
2007,01,02,05,09,0.10
2007,01,02,05,10,0.40
2007,01,02,05,11,2.20
2007,01,02,05,12,0.70
2007,01,02,05,13,0.00
2007,01,02,05,14,0.00
2007,01,02,05,15,0.00
2007,01,02,05,16,0.00
2007,01,02,05,17,0.00
2007,01,02,05,18,0.00
2007,01,02,05,19,0.00
2007,01,02,05,20,0.00
2007,01,02,05,21,0.00
2007,01,02,05,22,0.00
2007,01,02,05,23,0.00
2007,01,02,05,24,0.00
2007,01,02,05,25,0.00
2007,01,02,05,26,0.00
2007,01,02,05,27,0.00
2007,01,02,05,28,0.70
2007,01,02,05,29,1.80
2007,01,02,05,30,1.60
2007,01,02,05,31,2.60
2007,01,02,05,32,4.20
2007,01,02,05,33,2.80
2007,01,02,05,34,1.90
2007,01,02,05,35,1.60
2007,01,02,05,36,1.00
2007,01,02,05,37,0.10
2007,01,02,05,38,0.00
2007,01,02,05,39,2.10
2007,01,02,05,40,1.00
2007,01,02,05,41,0.70
2007,01,02,05,42,0.00
2007,01,02,05,43,0.00
2007,01,02,05,44,0.10
2007,01,02,05,45,0.00
2007,01,02,05,46,0.00
2007,01,02,05,47,0.00
2007,01,02,05,48,0.30
2007,01,02,05,49,0.90
2007,01,02,05,50,0.40
2007,01,02,05,51,0.40
2007,01,02,05,52,3.00
2007,01,02,05,53,3.20
2007,01,02,05,54,3.20
2007,01,02,05,55,3.20
2007,01,02,05,56,3.00
2007,01,02,05,57,4.50
2007,01,02,05,58,2.00
2007,01,02,05,59,5.20
2007,01,02,06,00,4.30
2007,01,02,06,01,1.70
2007,01,02,06,02,0.10
2007,01,02,06,03,0.30
2007,01,02,06,04,0.10
2007,01,02,06,05,0.00
2007,01,02,06,06,0.50
2007,01,02,06,07,0.70
2007,01,02,06,08,2.40
2007,01,02,06,09,4.70
2007,01,02,06,10,5.20
2007,01,02,06,11,6.50
2007,01,02,06,12,5.10
2007,01,02,06,13,1.30
2007,01,02,06,14,0.00
2007,01,02,06,15,0.70
2007,01,02,06,16,3.00
2007,01,02,06,17,2.50
2007,01,02,06,18,0.70
2007,01,02,06,19,1.50
2007,01,02,06,20,0.70
2007,01,02,06,21,0.10
2007,01,02,06,22,0.00
2007,01,02,06,23,0.80
2007,01,02,06,24,2.80
2007,01,02,06,25,4.10
2007,01,02,06,26,5.70
2007,01,02,06,27,4.30
2007,01,02,06,28,4.20
2007,01,02,06,29,2.70
2007,01,02,06,30,2.50
2007,01,02,06,31,3.30
2007,01,02,06,32,3.40
2007,01,02,06,33,2.80
2007,01,02,06,34,3.40
2007,01,02,06,35,2.00
2007,01,02,06,36,0.90
2007,01,02,06,37,0.00
2007,01,02,06,38,0.40
2007,01,02,06,39,2.40
2007,01,02,06,40,2.80
2007,01,02,06,41,1.80
2007,01,02,06,42,1.00
2007,01,02,06,43,1.60
2007,01,02,06,44,1.60
2007,01,02,06,45,1.90
2007,01,02,06,46,1.90
2007,01,02,06,47,2.30
2007,01,02,06,48,3.10
2007,01,02,06,49,2.80
2007,01,02,06,50,0.80
2007,01,02,06,51,0.60
2007,01,02,06,52,4.30
2007,01,02,06,53,5.50
2007,01,02,06,54,3.00
2007,01,02,06,55,3.60
2007,01,02,06,56,6.00
2007,01,02,06,57,1.90
2007,01,02,06,58,0.00
2007,01,02,06,59,2.40
2007,01,02,07,00,1.50
2007,01,02,07,01,1.10
2007,01,02,07,02,1.00
2007,01,02,07,03,3.10
2007,01,02,07,04,2.00
2007,01,02,07,05,0.00
2007,01,02,07,06,0.00
2007,01,02,07,07,1.80
2007,01,02,07,08,2.50
2007,01,02,07,09,1.30
2007,01,02,07,10,2.70
2007,01,02,07,11,3.60
2007,01,02,07,12,1.50
2007,01,02,07,13,0.00
2007,01,02,07,14,0.00
2007,01,02,07,15,0.10
2007,01,02,07,16,0.00
2007,01,02,07,17,0.00
2007,01,02,07,18,2.40
2007,01,02,07,19,3.80
2007,01,02,07,20,2.80
2007,01,02,07,21,1.60
2007,01,02,07,22,0.60
2007,01,02,07,23,0.10
2007,01,02,07,24,1.80
2007,01,02,07,25,0.50
2007,01,02,07,26,0.50
2007,01,02,07,27,0.10
2007,01,02,07,28,1.50
2007,01,02,07,29,1.20
2007,01,02,07,30,1.30
2007,01,02,07,31,1.30
2007,01,02,07,32,0.10
2007,01,02,07,33,0.40
2007,01,02,07,34,1.90
2007,01,02,07,35,2.40
2007,01,02,07,36,2.10
2007,01,02,07,37,1.00
2007,01,02,07,38,0.10
2007,01,02,07,39,0.60
2007,01,02,07,40,0.90
2007,01,02,07,41,0.60
2007,01,02,07,42,0.00
2007,01,02,07,43,0.00
2007,01,02,07,44,0.80
2007,01,02,07,45,5.50
2007,01,02,07,46,6.40
2007,01,02,07,47,5.90
2007,01,02,07,48,6.80
2007,01,02,07,49,8.30
2007,01,02,07,50,6.70
2007,01,02,07,51,4.60
2007,01,02,07,52,2.90
2007,01,02,07,53,0.60
2007,01,02,07,54,0.00
2007,01,02,07,55,0.20
2007,01,02,07,56,0.10
2007,01,02,07,57,0.00
2007,01,02,07,58,1.80
2007,01,02,07,59,3.10
2007,01,02,08,00,2.60
2007,01,02,08,01,1.90
2007,01,02,08,02,0.10
2007,01,02,08,03,0.00
2007,01,02,08,04,0.00
2007,01,02,08,05,0.00
2007,01,02,08,06,1.70
2007,01,02,08,07,2.20
2007,01,02,08,08,1.70
2007,01,02,08,09,3.00
2007,01,02,08,10,3.70
2007,01,02,08,11,5.50
2007,01,02,08,12,4.00
2007,01,02,08,13,2.90
2007,01,02,08,14,1.60
2007,01,02,08,15,0.20
2007,01,02,08,16,1.00
2007,01,02,08,17,1.70
2007,01,02,08,18,2.10
2007,01,02,08,19,2.00
2007,01,02,08,20,1.80
2007,01,02,08,21,2.10
2007,01,02,08,22,1.00
2007,01,02,08,23,2.80
2007,01,02,08,24,6.20
2007,01,02,08,25,11.40
2007,01,02,08,26,8.90
2007,01,02,08,27,4.00
2007,01,02,08,28,5.90
2007,01,02,08,29,3.60
2007,01,02,08,30,6.70
2007,01,02,08,31,13.70
2007,01,02,08,32,15.80
2007,01,02,08,33,13.70
2007,01,02,08,34,7.40
2007,01,02,08,35,4.60
2007,01,02,08,36,2.00
2007,01,02,08,37,5.20
2007,01,02,08,38,2.60
2007,01,02,08,39,1.20
2007,01,02,08,40,0.30
2007,01,02,08,41,3.50
2007,01,02,08,42,4.50
2007,01,02,08,43,2.20
2007,01,02,08,44,5.00
2007,01,02,08,45,3.00
2007,01,02,08,46,11.30
2007,01,02,08,47,13.60
2007,01,02,08,48,5.40
2007,01,02,08,49,0.30
2007,01,02,08,50,4.50
2007,01,02,08,51,3.20
2007,01,02,08,52,2.70
2007,01,02,08,53,4.40
2007,01,02,08,54,6.40
2007,01,02,08,55,3.40
2007,01,02,08,56,5.20
2007,01,02,08,57,1.90
2007,01,02,08,58,0.00
2007,01,02,08,59,0.10
2007,01,02,09,00,0.70
2007,01,02,09,01,0.60
2007,01,02,09,02,1.70
2007,01,02,09,03,2.10
2007,01,02,09,04,3.80
2007,01,02,09,05,3.60
2007,01,02,09,06,3.70
2007,01,02,09,07,3.10
2007,01,02,09,08,0.80
2007,01,02,09,09,2.40
2007,01,02,09,10,4.80
2007,01,02,09,11,3.50
2007,01,02,09,12,5.90
2007,01,02,09,13,7.30
2007,01,02,09,14,5.00
2007,01,02,09,15,5.20
2007,01,02,09,16,5.40
2007,01,02,09,17,8.40
2007,01,02,09,18,14.80
2007,01,02,09,19,10.00
2007,01,02,09,20,5.30
2007,01,02,09,21,5.80
2007,01,02,09,22,11.70
2007,01,02,09,23,11.20
2007,01,02,09,24,10.10
2007,01,02,09,25,8.10
2007,01,02,09,26,6.00
2007,01,02,09,27,4.70
2007,01,02,09,28,5.60
2007,01,02,09,29,10.60
2007,01,02,09,30,4.50
2007,01,02,09,31,6.10
2007,01,02,09,32,8.20
2007,01,02,09,33,6.50
2007,01,02,09,34,4.70
2007,01,02,09,35,5.10
2007,01,02,09,36,4.10
2007,01,02,09,37,5.00
2007,01,02,09,38,4.00
2007,01,02,09,39,3.60
2007,01,02,09,40,7.60
2007,01,02,09,41,7.10
2007,01,02,09,42,5.70
2007,01,02,09,43,4.70
2007,01,02,09,44,5.80
2007,01,02,09,45,5.90
2007,01,02,09,46,6.40
2007,01,02,09,47,6.40
2007,01,02,09,48,9.60
2007,01,02,09,49,9.60
2007,01,02,09,50,8.90
2007,01,02,09,51,4.60
2007,01,02,09,52,6.20
2007,01,02,09,53,5.50
2007,01,02,09,54,6.30
2007,01,02,09,55,4.80
2007,01,02,09,56,5.00
2007,01,02,09,57,5.60
2007,01,02,09,58,4.90
2007,01,02,09,59,5.90
2007,01,02,10,00,4.80
2007,01,02,10,01,6.10
2007,01,02,10,02,7.50
2007,01,02,10,03,6.20
2007,01,02,10,04,7.50
2007,01,02,10,05,10.50
2007,01,02,10,06,11.30
2007,01,02,10,07,8.50
2007,01,02,10,08,5.60
2007,01,02,10,09,7.00
2007,01,02,10,10,4.80
2007,01,02,10,11,11.20
2007,01,02,10,12,12.90
2007,01,02,10,13,5.70
2007,01,02,10,14,9.90
2007,01,02,10,15,12.60
2007,01,02,10,16,8.90
2007,01,02,10,17,13.20
2007,01,02,10,18,13.20
2007,01,02,10,19,12.90
2007,01,02,10,20,7.80
2007,01,02,10,21,8.60
2007,01,02,10,22,11.00
2007,01,02,10,23,12.50
2007,01,02,10,24,10.10
2007,01,02,10,25,8.00
2007,01,02,10,26,8.00
2007,01,02,10,27,7.40
2007,01,02,10,28,11.80
2007,01,02,10,29,10.60
2007,01,02,10,30,9.60
2007,01,02,10,31,9.20
2007,01,02,10,32,7.90
2007,01,02,10,33,15.20
2007,01,02,10,34,20.00
2007,01,02,10,35,16.80
2007,01,02,10,36,9.90
2007,01,02,10,37,14.20
2007,01,02,10,38,18.80
2007,01,02,10,39,21.10
2007,01,02,10,40,25.20
2007,01,02,10,41,23.40
2007,01,02,10,42,18.10
2007,01,02,10,43,35.30
2007,01,02,10,44,33.20
2007,01,02,10,45,31.30
2007,01,02,10,46,31.70
2007,01,02,10,47,32.00
2007,01,02,10,48,31.90
2007,01,02,10,49,31.90
2007,01,02,10,50,23.40
2007,01,02,10,51,27.90
2007,01,02,10,52,30.60
2007,01,02,10,53,21.30
2007,01,02,10,54,26.70
2007,01,02,10,55,31.10
2007,01,02,10,56,36.80
2007,01,02,10,57,31.00
2007,01,02,10,58,27.10
2007,01,02,10,59,21.70
2007,01,02,11,00,26.50
2007,01,02,11,01,24.10
2007,01,02,11,02,32.00
2007,01,02,11,03,30.60
2007,01,02,11,04,30.60
2007,01,02,11,05,30.60
2007,01,02,11,06,23.90
2007,01,02,11,07,30.40
2007,01,02,11,08,28.00
2007,01,02,11,09,28.40
2007,01,02,11,10,35.40
2007,01,02,11,11,35.40
2007,01,02,11,12,35.40
2007,01,02,11,13,34.90
2007,01,02,11,14,27.20
2007,01,02,11,15,21.90
2007,01,02,11,16,27.10
2007,01,02,11,17,19.10
2007,01,02,11,18,25.10
2007,01,02,11,19,20.30
2007,01,02,11,20,27.00
2007,01,02,11,21,21.30
2007,01,02,11,22,19.90
2007,01,02,11,23,26.10
2007,01,02,11,24,22.10
2007,01,02,11,25,23.30
2007,01,02,11,26,20.00
2007,01,02,11,27,31.90
2007,01,02,11,28,25.40
2007,01,02,11,29,23.90
2007,01,02,11,30,26.40
2007,01,02,11,31,22.10
2007,01,02,11,32,23.80
2007,01,02,11,33,30.70
2007,01,02,11,34,26.90
2007,01,02,11,35,26.30
2007,01,02,11,36,22.70
2007,01,02,11,37,25.20
2007,01,02,11,38,31.40
2007,01,02,11,39,24.40
2007,01,02,11,40,30.90
2007,01,02,11,41,29.40
2007,01,02,11,42,15.50
2007,01,02,11,43,22.10
2007,01,02,11,44,22.70
2007,01,02,11,45,16.60
2007,01,02,11,46,22.20
2007,01,02,11,47,21.40
2007,01,02,11,48,27.40
2007,01,02,11,49,25.10
2007,01,02,11,50,27.00
2007,01,02,11,51,22.80
2007,01,02,11,52,24.50
2007,01,02,11,53,28.10
2007,01,02,11,54,25.20
2007,01,02,11,55,24.60
2007,01,02,11,56,22.20
2007,01,02,11,57,18.20
2007,01,02,11,58,19.90
2007,01,02,11,59,18.50
2007,01,02,12,00,11.90
2007,01,02,12,01,14.00
2007,01,02,12,02,21.70
2007,01,02,12,03,13.10
2007,01,02,12,04,14.80
2007,01,02,12,05,23.70
2007,01,02,12,06,28.90
2007,01,02,12,07,14.20
2007,01,02,12,08,14.90
2007,01,02,12,09,18.90
2007,01,02,12,10,16.80
2007,01,02,12,11,14.80
2007,01,02,12,12,11.90
2007,01,02,12,13,14.00
2007,01,02,12,14,18.70
2007,01,02,12,15,15.40
2007,01,02,12,16,25.10
2007,01,02,12,17,20.50
2007,01,02,12,18,17.60
2007,01,02,12,19,20.60
2007,01,02,12,20,22.50
2007,01,02,12,21,35.50
2007,01,02,12,22,21.70
2007,01,02,12,23,23.90
2007,01,02,12,24,24.20
2007,01,02,12,25,23.50
2007,01,02,12,26,21.40
2007,01,02,12,27,23.40
2007,01,02,12,28,25.80
2007,01,02,12,29,36.30
2007,01,02,12,30,23.50
2007,01,02,12,31,20.70
2007,01,02,12,32,22.70
2007,01,02,12,33,22.20
2007,01,02,12,34,31.80
2007,01,02,12,35,41.80
2007,01,02,12,36,36.20
2007,01,02,12,37,31.30
2007,01,02,12,38,29.60
2007,01,02,12,39,19.60
2007,01,02,12,40,30.60
2007,01,02,12,41,30.70
2007,01,02,12,42,30.10
2007,01,02,12,43,31.50
2007,01,02,12,44,24.40
2007,01,02,12,45,19.40
2007,01,02,12,46,26.80
2007,01,02,12,47,26.10
2007,01,02,12,48,32.00
2007,01,02,12,49,33.10
2007,01,02,12,50,36.50
2007,01,02,12,51,26.00
2007,01,02,12,52,23.60
2007,01,02,12,53,30.30
2007,01,02,12,54,25.40
2007,01,02,12,55,27.10
2007,01,02,12,56,30.40
2007,01,02,12,57,28.10
2007,01,02,12,58,30.10
2007,01,02,12,59,22.50
2007,01,02,13,00,22.50
2007,01,02,13,01,30.50
2007,01,02,13,02,26.30
2007,01,02,13,03,32.10
2007,01,02,13,04,26.40
2007,01,02,13,05,19.20
2007,01,02,13,06,22.70
2007,01,02,13,07,27.90
2007,01,02,13,08,28.00
2007,01,02,13,09,21.80
2007,01,02,13,10,20.40
2007,01,02,13,11,23.40
2007,01,02,13,12,27.30
2007,01,02,13,13,21.20
2007,01,02,13,14,20.20
2007,01,02,13,15,22.90
2007,01,02,13,16,24.80
2007,01,02,13,17,26.90
2007,01,02,13,18,24.40
2007,01,02,13,19,28.20
2007,01,02,13,20,24.40
2007,01,02,13,21,22.40
2007,01,02,13,22,19.80
2007,01,02,13,23,24.60
2007,01,02,13,24,32.70
2007,01,02,13,25,24.10
2007,01,02,13,26,24.80
2007,01,02,13,27,18.30
2007,01,02,13,28,20.00
2007,01,02,13,29,17.60
2007,01,02,13,30,20.90
2007,01,02,13,31,25.30
2007,01,02,13,32,22.30
2007,01,02,13,33,19.70
2007,01,02,13,34,23.20
2007,01,02,13,35,23.50
2007,01,02,13,36,23.90
2007,01,02,13,37,22.40
2007,01,02,13,38,21.10
2007,01,02,13,39,17.80
2007,01,02,13,40,18.20
2007,01,02,13,41,11.30
2007,01,02,13,42,24.40
2007,01,02,13,43,21.10
2007,01,02,13,44,24.80
2007,01,02,13,45,21.00
2007,01,02,13,46,26.80
2007,01,02,13,47,26.70
2007,01,02,13,48,20.50
2007,01,02,13,49,29.00
2007,01,02,13,50,31.80
2007,01,02,13,51,26.90
2007,01,02,13,52,22.50
2007,01,02,13,53,22.10
2007,01,02,13,54,33.20
2007,01,02,13,55,32.00
2007,01,02,13,56,24.00
2007,01,02,13,57,30.50
2007,01,02,13,58,24.10
2007,01,02,13,59,25.90
2007,01,02,14,00,31.00
2007,01,02,14,01,22.40
2007,01,02,14,02,24.40
2007,01,02,14,03,25.00
2007,01,02,14,04,20.20
2007,01,02,14,05,28.90
2007,01,02,14,06,28.90
2007,01,02,14,07,26.50
2007,01,02,14,08,25.40
2007,01,02,14,09,28.80
2007,01,02,14,10,26.80
2007,01,02,14,11,24.40
2007,01,02,14,12,24.10
2007,01,02,14,13,17.40
2007,01,02,14,14,29.20
2007,01,02,14,15,31.50
2007,01,02,14,16,24.70
2007,01,02,14,17,28.00
2007,01,02,14,18,18.80
2007,01,02,14,19,23.30
2007,01,02,14,20,21.50
2007,01,02,14,21,23.00
2007,01,02,14,22,23.50
2007,01,02,14,23,20.10
2007,01,02,14,24,15.30
2007,01,02,14,25,23.70
2007,01,02,14,26,25.30
2007,01,02,14,27,22.70
2007,01,02,14,28,23.00
2007,01,02,14,29,34.10
2007,01,02,14,30,21.60
2007,01,02,14,31,23.40
2007,01,02,14,32,25.40
2007,01,02,14,33,24.20
2007,01,02,14,34,23.40
2007,01,02,14,35,37.00
2007,01,02,14,36,39.90
2007,01,02,14,37,40.00
2007,01,02,14,38,18.50
2007,01,02,14,39,24.30
2007,01,02,14,40,24.80
2007,01,02,14,41,20.50
2007,01,02,14,42,20.70
2007,01,02,14,43,25.00
2007,01,02,14,44,21.00
2007,01,02,14,45,17.80
2007,01,02,14,46,22.60
2007,01,02,14,47,24.10
2007,01,02,14,48,17.10
2007,01,02,14,49,23.00
2007,01,02,14,50,22.80
2007,01,02,14,51,26.80
2007,01,02,14,52,29.00
2007,01,02,14,53,35.10
2007,01,02,14,54,28.50
2007,01,02,14,55,16.40
2007,01,02,14,56,26.70
2007,01,02,14,57,29.30
2007,01,02,14,58,15.50
2007,01,02,14,59,14.50
2007,01,02,15,00,23.40
2007,01,02,15,01,18.60
2007,01,02,15,02,31.20
2007,01,02,15,03,23.60
2007,01,02,15,04,25.20
2007,01,02,15,05,21.50
2007,01,02,15,06,23.30
2007,01,02,15,07,21.00
2007,01,02,15,08,19.80
2007,01,02,15,09,32.50
2007,01,02,15,10,30.20
2007,01,02,15,11,19.80
2007,01,02,15,12,23.80
2007,01,02,15,13,29.60
2007,01,02,15,14,20.80
2007,01,02,15,15,21.90
2007,01,02,15,16,20.80
2007,01,02,15,17,28.80
2007,01,02,15,18,26.60
2007,01,02,15,19,22.50
2007,01,02,15,20,24.30
2007,01,02,15,21,21.50
2007,01,02,15,22,13.80
2007,01,02,15,23,24.40
2007,01,02,15,24,30.40
2007,01,02,15,25,22.10
2007,01,02,15,26,16.80
2007,01,02,15,27,16.10
2007,01,02,15,28,12.10
2007,01,02,15,29,16.70
2007,01,02,15,30,17.60
2007,01,02,15,31,20.90
2007,01,02,15,32,24.00
2007,01,02,15,33,17.40
2007,01,02,15,34,21.10
2007,01,02,15,35,21.90
2007,01,02,15,36,23.40
2007,01,02,15,37,24.10
2007,01,02,15,38,15.30
2007,01,02,15,39,21.90
2007,01,02,15,40,22.60
2007,01,02,15,41,14.10
2007,01,02,15,42,14.00
2007,01,02,15,43,13.30
2007,01,02,15,44,23.60
2007,01,02,15,45,17.30
2007,01,02,15,46,19.20
2007,01,02,15,47,21.10
2007,01,02,15,48,25.80
2007,01,02,15,49,22.00
2007,01,02,15,50,32.00
2007,01,02,15,51,25.10
2007,01,02,15,52,24.30
2007,01,02,15,53,24.40
2007,01,02,15,54,19.30
2007,01,02,15,55,24.50
2007,01,02,15,56,20.80
2007,01,02,15,57,19.60
2007,01,02,15,58,26.10
2007,01,02,15,59,27.10
2007,01,02,16,00,22.90
2007,01,02,16,01,27.90
2007,01,02,16,02,27.60
2007,01,02,16,03,21.80
2007,01,02,16,04,29.70
2007,01,02,16,05,25.70
2007,01,02,16,06,24.70
2007,01,02,16,07,26.00
2007,01,02,16,08,26.20
2007,01,02,16,09,22.50
2007,01,02,16,10,22.60
2007,01,02,16,11,22.70
2007,01,02,16,12,31.90
2007,01,02,16,13,19.10
2007,01,02,16,14,18.10
2007,01,02,16,15,18.30
2007,01,02,16,16,19.10
2007,01,02,16,17,23.10
2007,01,02,16,18,17.80
2007,01,02,16,19,18.70
2007,01,02,16,20,22.50
2007,01,02,16,21,23.90
2007,01,02,16,22,18.40
2007,01,02,16,23,19.30
2007,01,02,16,24,17.10
2007,01,02,16,25,20.60
2007,01,02,16,26,27.00
2007,01,02,16,27,20.50
2007,01,02,16,28,22.70
2007,01,02,16,29,17.70
2007,01,02,16,30,18.60
2007,01,02,16,31,27.60
2007,01,02,16,32,22.70
2007,01,02,16,33,21.00
2007,01,02,16,34,16.30
2007,01,02,16,35,16.20
2007,01,02,16,36,22.40
2007,01,02,16,37,20.20
2007,01,02,16,38,24.10
2007,01,02,16,39,22.70
2007,01,02,16,40,22.00
2007,01,02,16,41,24.00
2007,01,02,16,42,26.40
2007,01,02,16,43,26.70
2007,01,02,16,44,22.80
2007,01,02,16,45,17.10
2007,01,02,16,46,16.20
2007,01,02,16,47,23.20
2007,01,02,16,48,24.30
2007,01,02,16,49,18.40
2007,01,02,16,50,20.00
2007,01,02,16,51,12.40
2007,01,02,16,52,16.30
2007,01,02,16,53,24.70
2007,01,02,16,54,24.00
2007,01,02,16,55,20.30
2007,01,02,16,56,27.20
2007,01,02,16,57,25.50
2007,01,02,16,58,28.10
2007,01,02,16,59,23.70
2007,01,02,17,00,20.40
2007,01,02,17,01,14.90
2007,01,02,17,02,20.70
2007,01,02,17,03,20.80
2007,01,02,17,04,19.40
2007,01,02,17,05,23.40
2007,01,02,17,06,18.60
2007,01,02,17,07,21.70
2007,01,02,17,08,22.70
2007,01,02,17,09,20.10
2007,01,02,17,10,23.60
2007,01,02,17,11,22.30
2007,01,02,17,12,18.60
2007,01,02,17,13,19.90
2007,01,02,17,14,21.60
2007,01,02,17,15,15.70
2007,01,02,17,16,18.30
2007,01,02,17,17,23.90
2007,01,02,17,18,24.00
2007,01,02,17,19,19.10
2007,01,02,17,20,15.60
2007,01,02,17,21,13.20
2007,01,02,17,22,24.40
2007,01,02,17,23,20.70
2007,01,02,17,24,14.80
2007,01,02,17,25,19.30
2007,01,02,17,26,21.40
2007,01,02,17,27,19.50
2007,01,02,17,28,18.50
2007,01,02,17,29,11.40
2007,01,02,17,30,11.30
2007,01,02,17,31,11.30
2007,01,02,17,32,12.50
2007,01,02,17,33,22.70
2007,01,02,17,34,19.00
2007,01,02,17,35,13.70
2007,01,02,17,36,20.50
2007,01,02,17,37,31.80
2007,01,02,17,38,24.10
2007,01,02,17,39,23.40
2007,01,02,17,40,17.40
2007,01,02,17,41,23.30
2007,01,02,17,42,31.10
2007,01,02,17,43,30.60
2007,01,02,17,44,30.60
2007,01,02,17,45,24.20